Location: Truman State University Observatory
(40.1787°N, 92.6006°W)
Time: 16:13:02
(UTC-06:00)

Tiangong 1 - Visible Passes

Search period start: 24 November 2017 00:00
Search period end: 04 December 2017 00:00
Orbit: 283 x 307 km, 42.8° (Epoch: 24 November)

Date Brightness Start Highest point End Pass type
(mag) Time Alt. Az. Time Alt. Az. Time Alt. Az.
24 Nov 2.0 18:13:50 10° SSW 18:15:53 26° SSE 18:15:53 26° SSE visible
25 Nov 1.2 18:19:54 10° SW 18:22:07 48° S 18:22:07 48° S visible
26 Nov 1.4 18:26:07 10° WSW 18:28:10 51° W 18:28:10 51° W visible
27 Nov 2.2 18:32:20 10° W 18:34:02 34° WNW 18:34:02 34° WNW visible
28 Nov 2.8 18:38:29 10° W 18:39:46 24° WNW 18:39:46 24° WNW visible
29 Nov 3.3 18:44:27 10° WNW 18:45:22 18° WNW 18:45:22 18° WNW visible
30 Nov 0.9 17:15:20 10° W 17:17:53 52° N 17:20:25 10° ENE visible
30 Nov 3.7 18:50:15 10° WNW 18:50:50 15° WNW 18:50:50 15° WNW visible
01 Dec 1.1 17:21:04 10° WNW 17:23:34 43° N 17:25:53 11° ENE visible
01 Dec 3.9 18:55:52 10° WNW 18:56:13 13° WNW 18:56:13 13° WNW visible
02 Dec 1.1 17:26:38 10° WNW 17:29:09 43° N 17:31:11 14° ENE visible
02 Dec 4.2 19:01:22 10° WNW 19:01:31 11° WNW 19:01:31 11° WNW visible
03 Dec 0.8 17:32:01 10° WNW 17:34:34 52° N 17:36:28 16° E visible
03 Dec 4.4 19:06:47 10° W 19:06:47 10° W 19:06:47 10° W visible
